Bel Air, Maryland - USA


Today's Data File


5/4/26
Time         Wind Dir   Wind Spd  Wind Gust     Hum In   Humidity    Temp In       Temp  Raw Barom Wind Chill  Press Alt Cloud Base   Dens Alt Temp Out R  DailyRain   24HrRain   RainRate
                    �        mph        mph          %          %         �F         �F         in         �F         ft         ft         ft      �F/hr         in         in      in/hr
12:00am           310          0          0         37         65       74.0       45.5      29.41       45.5        471       2767       -299      -1.50       0.00       0.00      0.000
12:01am           310          0          0         37         65       74.0       45.5      29.41       45.5        471       2767       -299      -1.47       0.00       0.00      0.000
12:02am           310          0          0         37         65       74.0       45.4      29.41       45.4        471       2765       -306      -1.56       0.00       0.00      0.000
12:03am           310          0          0         37         65       74.0       45.5      29.41       45.5        471       2767       -299      -1.43       0.00       0.00      0.000
12:04am           310          0          0         37         65       74.0       45.4      29.41       45.4        471       2765       -306      -1.50       0.00       0.00      0.000
12:05am           310          0          0         37         65       74.0       45.4      29.42       45.4        470       2765       -307      -1.48       0.00       0.00      0.000
12:06am           310          0          0         37         65       74.0       45.4      29.42       45.4        470       2765       -307      -1.45       0.00       0.00      0.000
12:07am           310          0          0         37         65       74.0       45.3      29.42       45.3        470       2764       -314      -1.53       0.00       0.00      0.000
12:08am           310          0          0         37         65       74.0       45.3      29.42       45.3        470       2764       -314      -1.50       0.00       0.00      0.000
12:09am           310          0          0         37         65       74.0       45.3      29.42       45.3        470       2764       -314      -1.48       0.00       0.00      0.000
12:10am           310          0          0         37         65       74.0       45.3      29.42       45.3        470       2764       -314      -1.45       0.00       0.00      0.000
12:11am           310          0          0         37         66       74.0       45.2      29.42       45.2        470       2667       -321      -1.53       0.00       0.00      0.000
12:12am           310          0          0         37         65       74.0       45.2      29.42       45.2        470       2763       -321      -1.50       0.00       0.00      0.000
12:13am           310          0          0         37         65       74.0       45.2      29.42       45.2        469       2763       -322      -1.48       0.00       0.00      0.000
12:14am           310          0          0         37         65       74.0       45.1      29.42       45.1        469       2762       -329      -1.55       0.00       0.00      0.000
12:15am           310          0          0         37         66       74.0       45.1      29.42       45.1        468       2666       -330      -1.53       0.00       0.00      0.000
12:16am           310          0          0         37         66       74.0       45.1      29.42       45.1        469       2666       -329      -1.50       0.00       0.00      0.000
12:17am           310          0          0         37         66       74.0       45.1      29.42       45.1        469       2666       -329      -1.48       0.00       0.00      0.000
12:18am           310          0          0         37         66       74.0       45.1      29.42       45.1        470       2666       -328      -1.45       0.00       0.00      0.000
12:19am           310          0          0         37         66       74.0       45.0      29.42       45.0        469       2665       -336      -1.53       0.00       0.00      0.000
12:20am           310          0          0         37         66       74.0       45.0      29.42       45.0        469       2665       -336      -1.50       0.00       0.00      0.000
12:21am           310          0          0         37         66       74.0       45.0      29.42       45.0        469       2665       -336      -1.48       0.00       0.00      0.000
12:22am           310          1          1         37         67       74.0       45.0      29.42       45.0        468       2571       -337      -1.45       0.00       0.00      0.000
12:23am           310          0          1         37         67       74.0       45.0      29.42       45.0        468       2571       -337      -1.43       0.00       0.00      0.000
12:24am           310          0          1         37         67       74.0       45.0      29.42       45.0        468       2571       -337      -1.41       0.00       0.00      0.000
12:25am           310          0          1         37         66       74.0       45.0      29.42       45.0        467       2665       -338      -1.38       0.00       0.00      0.000
12:26am           310          0          0         37         66       74.0       45.1      29.42       45.1        467       2666       -331      -1.26       0.00       0.00      0.000
12:27am           310          0          0         37         67       74.0       45.1      29.42       45.1        468       2572       -330      -1.24       0.00       0.00      0.000
12:28am           310          0          0         37         67       74.0       45.1      29.42       45.1        469       2572       -329      -1.22       0.00       0.00      0.000
12:29am           310          1          2         37         66       74.0       45.2      29.42       45.2        470       2667       -321      -1.10       0.00       0.00      0.000
12:30am           310          0          2         37         67       74.0       45.2      29.42       45.2        470       2573       -321      -1.08       0.00       0.00      0.000
12:31am           310          0          0         37         66       74.0       45.4      29.42       45.4        470       2670       -307      -0.86       0.00       0.00      0.000
12:32am           310          0          0         37         65       74.0       45.5      29.42       45.5        470       2767       -301      -0.75       0.00       0.00      0.000
12:33am           310          0          0         37         65       74.0       45.6      29.42       45.6        470       2768       -294      -0.64       0.00       0.00      0.000
12:34am           310          0          0         37         64       74.0       45.7      29.42       45.7        470       2866       -287      -0.53       0.00       0.00      0.000
12:35am           310          0          0         37         64       74.0       45.8      29.42       45.8        470       2867       -280      -0.42       0.00       0.00      0.000
12:36am           310          0          0         37         64       74.0       45.9      29.42       45.9        470       2869       -273      -0.31       0.00       0.00      0.000
12:37am           310          0          0         37         64       74.0       45.9      29.42       45.9        470       2869       -273      -0.31       0.00       0.00      0.000
12:38am           310          0          0         37         64       74.0       45.9      29.42       45.9        470       2869       -273      -0.30       0.00       0.00      0.000
12:39am           310          0          0         37         65       74.0       45.9      29.42       45.9        470       2772       -273      -0.30       0.00       0.00      0.000
12:40am           310          0          0         37         64       74.0       46.0      29.42       46.0        470       2870       -267      -0.20       0.00       0.00      0.000
12:41am           310          0          0         37         65       74.0       46.0      29.42       46.0        470       2773       -267      -0.19       0.00       0.00      0.000
12:42am           310          0          0         37         65       74.0       46.0      29.42       46.0        470       2773       -267      -0.19       0.00       0.00      0.000
12:43am           310          0          0         37         65       74.0       46.0      29.42       46.0        470       2773       -267      -0.18       0.00       0.00      0.000
12:44am           310          0          0         37         65       74.0       45.9      29.42       45.9        470       2772       -273      -0.28       0.00       0.00      0.000
12:45am           310          0          0         37         64       74.0       45.9      29.42       45.9        470       2869       -273      -0.27       0.00       0.00      0.000
12:46am           310          0          0         37         64       74.0       45.9      29.42       45.9        470       2869       -273      -0.27       0.00       0.00      0.000
12:47am           310          0          0         37         64       74.0       45.8      29.42       45.8        469       2867       -281      -0.37       0.00       0.00      0.000
12:48am           310          0          0         37         64       74.0       45.8      29.42       45.8        469       2867       -281      -0.36       0.00       0.00      0.000
12:49am           310          0          0         37         64       74.0       45.8      29.42       45.8        468       2867       -282      -0.35       0.00       0.00      0.000
12:50am           310          0          0         37         64       74.0       45.7      29.42       45.7        467       2866       -290      -0.45       0.00       0.00      0.000
12:51am           310          0          0         37         65       74.0       45.7      29.42       45.7        467       2769       -290      -0.44       0.00       0.00      0.000
12:52am           310          0          0         37         67       74.0       45.7      29.42       45.7        466       2579       -292      -0.43       0.00       0.00      0.000
12:53am           310          0          0         37         67       74.0       45.7      29.42       45.7        466       2579       -292      -0.43       0.00       0.00      0.000
12:54am           310          0          0         37         68       74.0       45.6      29.42       45.6        466       2484       -298      -0.52       0.00       0.00      0.000
12:55am           310          0          0         37         69       74.0       45.6      29.42       45.6        465       2392       -299      -0.51       0.00       0.00      0.000
12:56am           310          0          0         37         70       74.0       45.6      29.42       45.6        465       2301       -299      -0.50       0.00       0.00      0.000
12:57am           310          0          0         37         70       74.0       45.5      29.42       45.5        465       2300       -306      -0.59       0.00       0.00      0.000
12:58am           310          0          0         37         70       74.0       45.5      29.42       45.5        464       2300       -307      -0.58       0.00       0.00      0.000
12:59am           310          0          0         37         70       74.0       45.4      29.42       45.4        464       2299       -314      -0.67       0.00       0.00      0.000
1:00am            310          0          0         37         70       74.0       45.4      29.42       45.4        463       2299       -316      -0.66       0.00       0.00      0.000
1:01am            310          0          0         37         68       74.0       45.3      29.43       45.3        461       2481       -326      -0.75       0.00       0.00      0.000
1:02am            224          3          3         37         68       74.0       45.2      29.43       44.2        460       2480       -333      -0.83       0.00       0.00      0.000
1:03am            224          1          4         37         69       74.0       45.1      29.43       45.1        460       2387       -340      -0.92       0.00       0.00      0.000
1:04am            224          0          4         37         68       74.0       45.0      29.43       45.0        461       2478       -346      -1.00       0.00       0.00      0.000
1:05am            224          0          4         37         68       74.0       45.0      29.43       45.0        461       2478       -346      -0.99       0.00       0.00      0.000
1:06am            224          0          0         37         70       74.0       44.9      29.42       44.9        464       2294       -349      -1.07       0.00       0.00      0.000
1:07am            224          0          0         37         70       74.0       44.9      29.42       44.9        464       2294       -349      -1.06       0.00       0.00      0.000
1:08am            224          0          0         37         70       74.0       44.9      29.42       44.9        465       2294       -347      -1.04       0.00       0.00      0.000
1:09am            224          0          0         37         70       74.0       44.9      29.42       44.9        465       2294       -347      -1.02       0.00       0.00      0.000
1:10am            224          0          0         37         70       74.0       44.8      29.42       44.8        465       2293       -354      -1.10       0.00       0.00      0.000
1:11am            224          0          0         37         70       74.0       44.8      29.42       44.8        465       2293       -354      -1.08       0.00       0.00      0.000
1:12am            224          0          0         37         71       73.8       44.7      29.42       44.7        465       2203       -361      -1.16       0.00       0.00      0.000
1:13am            224          0          0         37         72       73.8       44.7      29.42       44.7        464       2115       -362      -1.15       0.00       0.00      0.000
1:14am            224          0          0         37         72       73.8       44.7      29.42       44.7        464       2115       -362      -1.13       0.00       0.00      0.000
1:15am            224          0          0         37         73       73.8       44.7      29.42       44.7        464       2027       -363      -1.11       0.00       0.00      0.000
1:16am            224          0          0         37         72       73.8       44.6      29.42       44.6        463       2114       -371      -1.19       0.00       0.00      0.000
1:17am            224          0          0         37         71       73.8       44.5      29.42       44.5        463       2201       -378      -1.27       0.00       0.00      0.000
1:18am            224          0          0         37         70       73.8       44.5      29.42       44.5        463       2290       -378      -1.25       0.00       0.00      0.000
1:19am            224          0          0         37         69       73.8       44.5      29.42       44.5        464       2381       -375      -1.23       0.00       0.00      0.000
1:20am            224          0          0         37         70       73.8       44.4      29.42       44.4        464       2289       -382      -1.30       0.00       0.00      0.000
1:21am            224          0          0         37         72       73.8       44.4      29.42       44.4        465       2112       -381      -1.28       0.00       0.00      0.000
1:22am            224          0          0         37         71       73.8       44.4      29.42       44.4        465       2200       -381      -1.26       0.00       0.00      0.000
1:23am            224          0          0         37         71       73.8       44.3      29.42       44.3        466       2199       -387      -1.34       0.00       0.00      0.000
1:24am            224          0          0         37         71       73.8       44.3      29.42       44.3        466       2199       -387      -1.32       0.00       0.00      0.000
1:25am            224          0          0         37         70       73.8       44.3      29.42       44.3        467       2288       -385      -1.30       0.00       0.00      0.000
1:26am            224          0          0         37         70       73.8       44.2      29.42       44.2        466       2287       -393      -1.37       0.00       0.00      0.000
1:27am            224          0          0         37         70       73.8       44.2      29.42       44.2        467       2287       -392      -1.35       0.00       0.00      0.000
1:28am            224          0          0         37         70       73.8       44.2      29.42       44.2        468       2287       -391      -1.33       0.00       0.00      0.000
1:29am            224          0          0         37         70       73.8       44.1      29.42       44.1        467       2286       -399      -1.41       0.00       0.00      0.000
1:30am            224          0          0         37         71       73.8       44.1      29.42       44.1        468       2197       -398      -1.38       0.00       0.00      0.000
1:31am            224          0          0         37         72       73.8       44.1      29.42       44.1        468       2109       -398      -1.36       0.00       0.00      0.000
1:32am            224          0          0         37         71       73.8       44.1      29.42       44.1        469       2197       -397      -1.34       0.00       0.00      0.000
1:33am            224          0          0         37         70       73.8       44.1      29.42       44.1        469       2286       -397      -1.31       0.00       0.00      0.000
1:34am            224          0          0         37         70       73.8       44.0      29.42       44.0        470       2285       -402      -1.39       0.00       0.00      0.000
1:35am            224          0          0         37         70       73.8       44.0      29.42       44.0        470       2285       -402      -1.37       0.00       0.00      0.000
1:36am            224          0          0         37         70       73.8       43.9      29.42       43.9        470       2284       -409      -1.44       0.00       0.00      0.000
1:37am            224          0          0         37         70       73.8       43.9      29.42       43.9        470       2284       -409      -1.42       0.00       0.00      0.000
1:38am            224          0          0         37         69       73.8       43.9      29.41       43.9        471       2374       -408      -1.40       0.00       0.00      0.000
1:39am            224          0          0         37         69       73.8       43.8      29.41       43.8        471       2373       -415      -1.47       0.00       0.00      0.000
1:40am            224          0          0         37         69       73.8       43.9      29.41       43.9        471       2374       -408      -1.35       0.00       0.00      0.000
1:41am            224          0          0         37         70       73.8       43.8      29.42       43.8        470       2283       -416      -1.43       0.00       0.00      0.000
1:42am            224          0          0         37         71       73.8       43.9      29.42       43.9        470       2195       -409      -1.30       0.00       0.00      0.000
1:43am            224          0          0         37         71       73.8       43.9      29.42       43.9        470       2195       -409      -1.28       0.00       0.00      0.000
1:44am            224          0          0         37         70       73.8       44.0      29.42       44.0        470       2285       -402      -1.16       0.00       0.00      0.000
1:45am            224          0          0         37         70       73.8       43.9      29.42       43.9        470       2284       -409      -1.24       0.00       0.00      0.000
1:46am            224          0          0         37         70       73.8       43.9      29.42       43.9        470       2284       -409      -1.22       0.00       0.00      0.000
1:47am            224          0          0         37         69       73.8       43.9      29.42       43.9        470       2374       -409      -1.20       0.00       0.00      0.000
1:48am            224          0          0         37         69       73.8       43.9      29.42       43.9        470       2374       -409      -1.18       0.00       0.00      0.000
1:49am            224          0          0         37         69       73.8       43.9      29.42       43.9        470       2374       -409      -1.16       0.00       0.00      0.000
1:50am            224          0          0         37         68       73.8       44.0      29.42       44.0        470       2467       -402      -1.04       0.00       0.00      0.000
1:51am            224          0          0         38         68       73.8       44.0      29.42       44.0        468       2467       -405      -1.03       0.00       0.00      0.000
1:52am            224          0          0         37         68       73.8       44.0      29.42       44.0        469       2467       -403      -1.01       0.00       0.00      0.000
1:53am            224          0          0         37         68       73.8       44.0      29.42       44.0        469       2467       -403      -0.99       0.00       0.00      0.000
1:54am            224          0          0         37         68       73.8       44.0      29.42       44.0        469       2467       -403      -0.98       0.00       0.00      0.000
1:55am            224          0          0         37         68       73.8       44.0      29.42       44.0        469       2467       -403      -0.96       0.00       0.00      0.000
1:56am            224          0          0         37         69       73.8       44.0      29.42       44.0        470       2375       -402      -0.94       0.00       0.00      0.000
1:57am            224          0          0         37         70       73.8       43.9      29.42       43.9        470       2284       -409      -1.03       0.00       0.00      0.000
1:58am            224          0          0         37         70       73.8       44.0      29.42       44.0        470       2285       -402      -0.91       0.00       0.00      0.000
1:59am            224          0          0         37         70       73.8       43.9      29.42       43.9        470       2284       -409      -1.00       0.00       0.00      0.000
2:00am            224          0          0         37         69       73.8       43.8      29.42       43.8        470       2373       -416      -1.08       0.00       0.00      0.000
2:01am            224          0          0         37         69       73.8       43.9      29.42       43.9        470       2374       -409      -0.96       0.00       0.00      0.000
2:02am            224          0          0         37         70       73.8       43.8      29.42       43.8        470       2283       -416      -1.05       0.00       0.00      0.000
2:03am            224          0          0         37         70       73.8       43.8      29.42       43.8        470       2283       -416      -1.03       0.00       0.00      0.000
2:04am            224          0          0         37         69       73.8       43.8      29.42       43.8        469       2373       -417      -1.01       0.00       0.00      0.000
2:05am            224          0          0         37         69       73.8       43.8      29.42       43.8        469       2373       -417      -0.99       0.00       0.00      0.000
2:06am            224          0          0         37         69       73.8       43.8      29.42       43.8        469       2373       -417      -0.98       0.00       0.00      0.000
2:07am            224          0          0         37         70       73.8       43.8      29.42       43.8        469       2283       -417      -0.96       0.00       0.00      0.000
2:08am            224          0          0         37         70       73.8       43.8      29.42       43.8        468       2283       -418      -0.95       0.00       0.00      0.000
2:09am            224          0          0         37         70       73.8       43.7      29.42       43.7        469       2282       -424      -1.03       0.00       0.00      0.000
2:10am            224          0          0         37         70       73.8       43.7      29.42       43.7        469       2282       -424      -1.01       0.00       0.00      0.000
2:11am            224          0          0         37         70       73.8       43.7      29.42       43.7        469       2282       -424      -1.00       0.00       0.00      0.000
2:12am            224          0          0         37         70       73.8       43.7      29.42       43.7        469       2282       -424      -0.98       0.00       0.00      0.000
2:13am            224          0          0         37         70       73.8       43.7      29.42       43.7        469       2282       -424      -0.96       0.00       0.00      0.000
2:14am            224          0          0         37         70       73.8       43.7      29.42       43.7        469       2282       -424      -0.95       0.00       0.00      0.000
2:15am            224          0          0         37         70       73.8       43.6      29.42       43.6        469       2281       -431      -1.03       0.00       0.00      0.000
2:16am            224          0          0         37         70       73.8       43.6      29.42       43.6        469       2281       -431      -1.01       0.00       0.00      0.000
2:17am            224          0          0         37         70       73.8       43.6      29.42       43.6        469       2281       -431      -1.00       0.00       0.00      0.000
2:18am            224          0          0         37         70       73.8       43.6      29.42       43.6        469       2281       -431      -0.98       0.00       0.00      0.000
2:19am            224          0          0         37         70       73.8       43.6      29.42       43.6        470       2281       -430      -0.96       0.00       0.00      0.000
2:20am            224          0          0         37         71       73.8       43.5      29.42       43.5        470       2191       -436      -1.05       0.00       0.00      0.000
2:21am            224          0          0         37         71       73.8       43.5      29.42       43.5        470       2191       -436      -1.03       0.00       0.00      0.000
2:22am            224          0          0         37         71       73.8       43.4      29.41       43.4        471       2190       -442      -1.11       0.00       0.00      0.000
2:23am            224          0          0         37         71       73.8       43.4      29.41       43.4        471       2190       -442      -1.09       0.00       0.00      0.000
2:24am            224          0          0         37         71       73.8       43.4      29.41       43.4        471       2190       -442      -1.08       0.00       0.00      0.000
2:25am            224          0          0         37         72       73.8       43.4      29.41       43.4        471       2103       -442      -1.06       0.00       0.00      0.000
2:26am            224          0          0         37         72       73.8       43.3      29.41       43.3        471       2102       -449      -1.14       0.00       0.00      0.000
2:27am            224          0          0         37         72       73.8       43.4      29.41       43.4        471       2103       -442      -1.02       0.00       0.00      0.000
2:28am            224          0          0         37         72       73.8       43.4      29.41       43.4        471       2103       -442      -1.01       0.00       0.00      0.000
2:29am            224          0          0         37         73       73.8       43.3      29.41       43.3        472       2015       -448      -1.09       0.00       0.00      0.000
2:30am            224          0          0         37         73       73.8       43.3      29.41       43.3        472       2015       -448      -1.07       0.00       0.00      0.000
2:31am            224          0          0         37         73       73.8       43.3      29.41       43.3        472       2015       -448      -1.05       0.00       0.00      0.000
2:32am            224          0          0         37         73       73.8       43.3      29.41       43.3        472       2015       -448      -1.03       0.00       0.00      0.000
2:33am            224          0          0         37         72       73.8       43.3      29.41       43.3        471       2102       -449      -1.02       0.00       0.00      0.000
2:34am            224          0          0         37         73       73.8       43.2      29.41       43.2        471       2014       -456      -1.10       0.00       0.00      0.000
2:35am            224          0          0         37         73       73.8       43.3      29.41       43.3        471       2015       -449      -0.98       0.00       0.00      0.000
2:36am            224          0          0         37         72       73.8       43.2      29.41       43.2        471       2101       -456      -1.07       0.00       0.00      0.000
2:37am            224          0          0         37         73       73.8       43.2      29.41       43.2        471       2014       -456      -1.05       0.00       0.00      0.000
2:38am            224          0          0         37         72       73.8       43.1      29.41       43.1        471       2100       -462      -1.13       0.00       0.00      0.000
2:39am            224          0          0         37         72       73.8       43.1      29.41       43.1        471       2100       -462      -1.11       0.00       0.00      0.000
2:40am            224          0          0         37         72       73.8       43.1      29.41       43.1        471       2100       -462      -1.09       0.00       0.00      0.000
2:41am            224          0          0         37         72       73.8       43.1      29.41       43.1        471       2100       -462      -1.07       0.00       0.00      0.000
2:42am            224          0          0         37         72       73.8       43.1      29.41       43.1        471       2100       -462      -1.06       0.00       0.00      0.000
2:43am            224          0          0         37         72       73.8       43.1      29.41       43.1        471       2100       -462      -1.04       0.00       0.00      0.000
2:44am            224          0          0         37         72       73.8       43.0      29.41       43.0        471       2099       -469      -1.12       0.00       0.00      0.000
2:45am            224          0          0         37         72       73.8       43.1      29.41       43.1        471       2100       -462      -1.00       0.00       0.00      0.000
2:46am            224          0          0         37         72       73.8       43.1      29.41       43.1        471       2100       -462      -0.99       0.00       0.00      0.000
2:47am            224          0          0         37         73       73.8       43.1      29.41       43.1        471       2013       -462      -0.97       0.00       0.00      0.000
2:48am            224          0          0         37         73       73.8       43.1      29.41       43.1        471       2013       -462      -0.95       0.00       0.00      0.000
2:49am            224          0          0         37         72       73.8       43.0      29.41       43.0        471       2099       -469      -1.04       0.00       0.00      0.000
2:50am            224          0          0         37         72       73.8       43.0      29.41       43.0        471       2099       -469      -1.02       0.00       0.00      0.000
2:51am            224          0          0         37         72       73.8       43.0      29.41       43.0        471       2099       -469      -1.00       0.00       0.00      0.000
2:52am            224          0          0         37         72       73.8       43.0      29.41       43.0        471       2099       -469      -0.99       0.00       0.00      0.000
2:53am            224          0          0         37         72       73.8       43.1      29.41       43.1        471       2100       -462      -0.87       0.00       0.00      0.000
2:54am            224          0          0         37         72       73.6       43.0      29.41       43.0        471       2099       -469      -0.96       0.00       0.00      0.000
2:55am            224          0          0         37         72       73.6       43.0      29.41       43.0        471       2099       -469      -0.94       0.00       0.00      0.000
2:56am            224          0          0         37         72       73.6       43.1      29.41       43.1        472       2100       -461      -0.83       0.00       0.00      0.000
2:57am            224          0          0         37         72       73.6       43.1      29.41       43.1        472       2100       -461      -0.81       0.00       0.00      0.000
2:58am            224          0          0         37         72       73.6       43.0      29.41       43.0        472       2099       -468      -0.90       0.00       0.00      0.000
2:59am            224          0          0         37         72       73.6       43.0      29.41       43.0        472       2099       -468      -0.88       0.00       0.00      0.000
3:00am            224          0          0         37         72       73.6       43.1      29.41       43.1        473       2100       -460      -0.77       0.00       0.00      0.000
3:01am            224          0          0         37         72       73.8       43.0      29.41       43.0        473       2099       -467      -0.85       0.00       0.00      0.000
3:02am            224          0          0         37         72       73.6       43.1      29.41       43.1        473       2100       -460      -0.74       0.00       0.00      0.000
3:03am            224          0          0         37         72       73.6       43.1      29.41       43.1        473       2100       -460      -0.73       0.00       0.00      0.000
3:04am            224          0          0         37         72       73.6       43.1      29.41       43.1        473       2100       -460      -0.72       0.00       0.00      0.000
3:05am            224          0          0         37         72       73.6       43.1      29.41       43.1        473       2100       -460      -0.71       0.00       0.00      0.000
3:06am            224          0          0         37         71       73.6       43.1      29.41       43.1        473       2187       -460      -0.69       0.00       0.00      0.000
3:07am            224          0          0         37         71       73.6       43.0      29.41       43.0        473       2186       -467      -0.78       0.00       0.00      0.000
3:08am            224          0          0         37         71       73.6       43.1      29.41       43.1        473       2187       -460      -0.67       0.00       0.00      0.000
3:09am            224          0          0         37         71       73.6       43.0      29.41       43.0        473       2186       -467      -0.76       0.00       0.00      0.000
3:10am            224          0          0         37         71       73.6       43.0      29.41       43.0        472       2186       -468      -0.74       0.00       0.00      0.000
3:11am            224          0          0         37         71       73.6       43.0      29.41       43.0        472       2186       -468      -0.73       0.00       0.00      0.000
3:12am            224          0          0         37         72       73.6       43.0      29.41       43.0        473       2099       -467      -0.72       0.00       0.00      0.000
3:13am            224          0          0         37         72       73.6       43.0      29.41       43.0        472       2099       -468      -0.71       0.00       0.00      0.000
3:14am            224          0          0         37         72       73.6       43.0      29.41       43.0        472       2099       -468      -0.70       0.00       0.00      0.000
3:15am            224          0          0         37         72       73.6       43.0      29.41       43.0        472       2099       -468      -0.69       0.00       0.00      0.000
3:16am            224          0          0         37         73       73.6       43.0      29.41       43.0        471       2012       -469      -0.67       0.00       0.00      0.000
3:17am            224          0          0         37         73       73.6       43.0      29.41       43.0        471       2012       -469      -0.66       0.00       0.00      0.000
3:18am            224          1          1         37         73       73.6       43.0      29.41       43.0        471       2012       -469      -0.65       0.00       0.00      0.000
3:19am            224          2          2         37         72       73.6       43.1      29.41       43.1        471       2100       -462      -0.54       0.00       0.00      0.000
3:20am            224          0          2         38         72       73.6       43.1      29.41       43.1        471       2100       -462      -0.53       0.00       0.00      0.000
3:21am            224          1          1         37         72       73.6       43.2      29.41       43.2        471       2101       -456      -0.43       0.00       0.00      0.000
3:22am            224          1          1         37         73       73.6       43.2      29.41       43.2        471       2014       -456      -0.42       0.00       0.00      0.000
3:23am            224          0          1         37         73       73.6       43.2      29.41       43.2        471       2014       -456      -0.41       0.00       0.00      0.000
3:24am            224          0          1         37         73       73.6       43.3      29.41       43.3        471       2015       -449      -0.31       0.00       0.00      0.000
3:25am            224          0          1         37         73       73.6       43.3      29.41       43.3        472       2015       -448      -0.30       0.00       0.00      0.000
3:26am            224          0          0         37         73       73.6       43.3      29.41       43.3        472       2015       -448      -0.29       0.00       0.00      0.000
3:27am            224          0          0         37         73       73.6       43.3      29.41       43.3        472       2015       -448      -0.29       0.00       0.00      0.000
3:28am            224          0          0         37         73       73.6       43.3      29.41       43.3        472       2015       -448      -0.28       0.00       0.00      0.000
3:29am            224          0          0         37         73       73.6       43.2      29.41       43.2        471       2014       -456      -0.38       0.00       0.00      0.000
3:30am            224          0          0         37         73       73.6       43.3      29.41       43.3        471       2015       -449      -0.27       0.00       0.00      0.000
3:31am            224          0          0         37         73       73.6       43.2      29.41       43.2        471       2014       -456      -0.37       0.00       0.00      0.000
3:32am            224          0          0         37         73       73.6       43.2      29.41       43.2        471       2014       -456      -0.36       0.00       0.00      0.000
3:33am            224          0          0         37         73       73.6       43.2      29.41       43.2        471       2014       -456      -0.36       0.00       0.00      0.000
3:34am            224          0          0         37         73       73.6       43.2      29.41       43.2        471       2014       -456      -0.35       0.00       0.00      0.000
3:35am            224          0          0         37         73       73.6       43.1      29.41       43.1        471       2013       -462      -0.44       0.00       0.00      0.000
3:36am            224          0          0         37         73       73.6       43.2      29.41       43.2        471       2014       -456      -0.34       0.00       0.00      0.000
3:37am            224          1          1         37         73       73.6       43.2      29.41       43.2        471       2014       -456      -0.33       0.00       0.00      0.000
3:38am            224          1          1         37         74       73.6       43.2      29.41       43.2        471       1928       -456      -0.33       0.00       0.00      0.000
3:39am            224          0          1         37         74       73.6       43.3      29.41       43.3        471       1929       -449      -0.22       0.00       0.00      0.000
3:40am            224          0          1         37         74       73.6       43.3      29.41       43.3        471       1929       -449      -0.22       0.00       0.00      0.000
3:41am            224          0          0         37         73       73.6       43.3      29.41       43.3        472       2015       -448      -0.21       0.00       0.00      0.000
3:42am            224          0          0         37         73       73.6       43.3      29.41       43.3        471       2015       -449      -0.21       0.00       0.00      0.000
3:43am            224          0          0         37         72       73.6       43.3      29.41       43.3        471       2102       -449      -0.21       0.00       0.00      0.000
3:44am            224          0          0         37         72       73.6       43.3      29.41       43.3        471       2102       -449      -0.20       0.00       0.00      0.000
3:45am            224          0          0         37         72       73.6       43.3      29.41       43.3        471       2102       -449      -0.20       0.00       0.00      0.000
3:46am            224          0          0         37         72       73.6       43.3      29.41       43.3        471       2102       -449      -0.20       0.00       0.00      0.000
3:47am            224          2          2         37         73       73.6       43.3      29.41       43.3        471       2015       -449      -0.19       0.00       0.00      0.000
3:48am            224          1          2         37         73       73.6       43.4      29.41       43.4        471       2016       -442      -0.09       0.00       0.00      0.000
3:49am            224          0          2         37         73       73.6       43.4      29.41       43.4        471       2016       -442      -0.09       0.00       0.00      0.000
3:50am            224          0          2         37         74       73.6       43.5      29.41       43.5        471       1931       -435       0.01       0.00       0.00      0.000
3:51am            224          0          0         37         73       73.6       43.4      29.41       43.4        471       2016       -442      -0.09       0.00       0.00      0.000
3:52am            224          0          0         37         73       73.6       43.4      29.41       43.4        471       2016       -442      -0.09       0.00       0.00      0.000
3:53am            224          0          0         37         73       73.6       43.4      29.41       43.4        471       2016       -442      -0.08       0.00       0.00      0.000
3:54am            224          0          0         37         73       73.6       43.4      29.41       43.4        471       2016       -442      -0.08       0.00       0.00      0.000
3:55am            224          0          0         37         73       73.6       43.4      29.41       43.4        472       2016       -441      -0.08       0.00       0.00      0.000
3:56am            224          0          0         37         73       73.6       43.3      29.41       43.3        472       2015       -448      -0.18       0.00       0.00      0.000
3:57am            224          0          0         37         73       73.6       43.3      29.41       43.3        471       2015       -449      -0.18       0.00       0.00      0.000
3:58am            224          0          0         37         73       73.6       43.3      29.41       43.3        471       2015       -449      -0.17       0.00       0.00      0.000
3:59am            224          0          0         37         73       73.6       43.3      29.41       43.3        471       2015       -449      -0.17       0.00       0.00      0.000
4:00am            224          0          0         37         73       73.6       43.3      29.41       43.3        471       2015       -449      -0.17       0.00       0.00      0.000
4:01am            224          0          0         37         73       73.6       43.3      29.41       43.3        471       2015       -449      -0.16       0.00       0.00      0.000
4:02am            224          0          0         37         73       73.6       43.3      29.41       43.3        471       2015       -449      -0.16       0.00       0.00      0.000
4:03am            224          0          0         37         73       73.6       43.2      29.41       43.2        471       2014       -456      -0.26       0.00       0.00      0.000
4:04am            224          0          0         37         73       73.6       43.2      29.41       43.2        471       2014       -456      -0.25       0.00       0.00      0.000
4:05am            224          0          0         37         73       73.6       43.1      29.41       43.1        471       2013       -462      -0.35       0.00       0.00      0.000
4:06am            224          0          0         37         73       73.6       43.1      29.41       43.1        471       2013       -462      -0.34       0.00       0.00      0.000
4:07am            224          0          0         37         74       73.6       43.1      29.41       43.1        471       1928       -462      -0.34       0.00       0.00      0.000
4:08am            224          0          0         37         74       73.6       43.1      29.41       43.1        471       1928       -462      -0.33       0.00       0.00      0.000
4:09am            224          0          0         37         74       73.6       43.1      29.41       43.1        471       1928       -462      -0.33       0.00       0.00      0.000
4:10am            224          0          0         37         75       73.6       43.1      29.41       43.1        471       1843       -462      -0.32       0.00       0.00      0.000
4:11am            224          0          0         37         75       73.6       43.1      29.41       43.1        471       1843       -462      -0.32       0.00       0.00      0.000
4:12am            224          0          0         37         74       73.6       43.2      29.41       43.2        471       1928       -456      -0.21       0.00       0.00      0.000
4:13am            224          0          0         37         74       73.5       43.1      29.41       43.1        471       1928       -462      -0.31       0.00       0.00      0.000
4:14am            224          0          0         37         73       73.5       43.0      29.41       43.0        471       2012       -469      -0.40       0.00       0.00      0.000
4:15am            224          0          0         37         73       73.5       43.1      29.41       43.1        471       2013       -462      -0.30       0.00       0.00      0.000
4:16am            224          0          0         37         73       73.5       43.0      29.41       43.0        471       2012       -469      -0.39       0.00       0.00      0.000
4:17am            224          0          0         37         73       73.5       43.1      29.41       43.1        471       2013       -462      -0.29       0.00       0.00      0.000
4:18am            224          0          0         37         73       73.5       43.0      29.41       43.0        471       2012       -469      -0.38       0.00       0.00      0.000
4:19am            224          0          0         37         73       73.5       42.9      29.41       42.9        471       2011       -476      -0.47       0.00       0.00      0.000
4:20am            224          0          0         37         73       73.5       42.9      29.41       42.9        471       2011       -476      -0.47       0.00       0.00      0.000
4:21am            224          0          0         37         73       73.5       43.0      29.41       43.0        471       2012       -469      -0.36       0.00       0.00      0.000
4:22am            224          0          0         37         74       73.5       43.0      29.41       43.0        471       1927       -469      -0.35       0.00       0.00      0.000
4:23am            224          0          0         37         73       73.5       43.0      29.41       43.0        471       2012       -469      -0.35       0.00       0.00      0.000
4:24am            224          2          2         37         73       73.5       43.1      29.41       43.1        471       2013       -462      -0.24       0.00       0.00      0.000
4:25am            224          1          2         37         74       73.5       43.1      29.41       43.1        471       1928       -462      -0.24       0.00       0.00      0.000
4:26am            224          1          2         36         74       73.5       43.1      29.41       43.1        471       1928       -462      -0.24       0.00       0.00      0.000
4:27am            224          2          2         37         73       73.5       43.1      29.41       43.1        471       2013       -462      -0.23       0.00       0.00      0.000
4:28am            224          1          2         37         74       73.5       43.2      29.41       43.2        471       1928       -456      -0.13       0.00       0.00      0.000
4:29am            224          1          2         37         74       73.5       43.1      29.41       43.1        471       1928       -462      -0.22       0.00       0.00      0.000
4:30am            224          1          2         37         74       73.5       43.1      29.42       43.1        470       1928       -464      -0.22       0.00       0.00      0.000
4:31am            224          0          1         37         75       73.5       43.1      29.42       43.1        470       1843       -464      -0.22       0.00       0.00      0.000
4:32am            224          0          1         37         75       73.5       43.1      29.42       43.1        470       1843       -464      -0.21       0.00       0.00      0.000
4:33am            224          0          1         37         75       73.5       43.0      29.42       43.0        470       1842       -470      -0.31       0.00       0.00      0.000
4:34am            224          0          1         37         74       73.5       43.0      29.42       43.0        470       1927       -470      -0.31       0.00       0.00      0.000
4:35am            224          0          1         37         74       73.5       43.0      29.41       43.0        471       1927       -469      -0.30       0.00       0.00      0.000
4:36am            224          0          0         37         74       73.5       43.0      29.41       43.0        471       1927       -469      -0.30       0.00       0.00      0.000
4:37am            224          0          0         37         74       73.5       43.0      29.42       43.0        470       1927       -470      -0.29       0.00       0.00      0.000
4:38am            224          0          0         37         74       73.5       42.9      29.41       42.9        471       1926       -476      -0.39       0.00       0.00      0.000
4:39am            224          0          0         37         74       73.5       42.9      29.41       42.9        471       1926       -476      -0.38       0.00       0.00      0.000
4:40am            224          0          0         37         74       73.5       43.0      29.41       43.0        471       1927       -469      -0.27       0.00       0.00      0.000
4:41am            224          0          0         37         75       73.5       42.9      29.41       42.9        471       1841       -476      -0.37       0.00       0.00      0.000
4:42am            224          0          0         37         75       73.5       42.9      29.41       42.9        471       1841       -476      -0.36       0.00       0.00      0.000
4:43am            224          0          0         37         75       73.5       42.8      29.41       42.8        471       1841       -483      -0.46       0.00       0.00      0.000
4:44am            224          0          0         37         75       73.5       42.8      29.41       42.8        471       1841       -483      -0.45       0.00       0.00      0.000
4:45am            224          0          0         37         76       73.5       42.8      29.41       42.8        471       1757       -483      -0.44       0.00       0.00      0.000
4:46am            224          0          0         37         76       73.5       42.8      29.41       42.8        471       1757       -483      -0.43       0.00       0.00      0.000
4:47am            224          0          0         37         76       73.5       42.7      29.41       42.7        471       1756       -490      -0.53       0.00       0.00      0.000
4:48am            224          0          0         37         76       73.5       42.7      29.41       42.7        471       1756       -490      -0.52       0.00       0.00      0.000
4:49am            224          0          0         37         76       73.5       42.7      29.41       42.7        472       1756       -489      -0.51       0.00       0.00      0.000
4:50am            224          0          0         37         76       73.5       42.7      29.41       42.7        472       1756       -489      -0.50       0.00       0.00      0.000
4:51am            224          0          0         36         77       73.5       42.6      29.41       42.6        472       1673       -495      -0.59       0.00       0.00      0.000
4:52am            224          0          0         37         77       73.5       42.6      29.41       42.6        471       1673       -497      -0.58       0.00       0.00      0.000
4:53am            224          0          0         37         77       73.5       42.5      29.41       42.5        471       1673       -503      -0.67       0.00       0.00      0.000
4:54am            224          0          0         37         77       73.5       42.5      29.41       42.5        471       1673       -503      -0.66       0.00       0.00      0.000
4:55am            224          1          2         37         77       73.5       42.5      29.41       42.5        471       1673       -503      -0.65       0.00       0.00      0.000
4:56am            224          1          3         37         77       73.5       42.5      29.41       42.5        471       1673       -503      -0.64       0.00       0.00      0.000
4:57am            224          3          3         37         77       73.5       42.5      29.41       41.2        472       1673       -502      -0.63       0.00       0.00      0.000
4:58am            224          2          4         36         76       73.5       42.6      29.41       42.6        472       1756       -495      -0.52       0.00       0.00      0.000

Data provided from:  Mark Hofmann's Bel Air, MD Weather Station